Location: Unspecified
(48.5539°N, 71.6350°W)
Time: 13:29:20
(UTC-04:00)

ISS - Pass Details

Date: 26 May 2019
Orbit: 407 x 418 km, 51.6° (Epoch: 25 June)

Event Time Altitude Azimuth Distance (km) Brightness Sun altitude
Rises 22:45:27 0° 289° (WNW) 2,359 0.8 -15.4°
Reaches altitude 10° 22:47:33 10° 292° (WNW) 1,497 -0.2 -15.5°
Maximum altitude 22:50:54 67° 16° (NNE) 458 -3.5 -15.8°
Enters shadow 22:52:56 22° 95° (E) 982 -2.2 -16.0°
